Deelen, Netherlands

3:09 PM CEST on August 23, 2017 (GMT +0200)
Deelen Air Base

Weather History for EHDL - December, 2013

Change the Weather History Date:

Sunday, December 1, 2013

  Actual Average Record
Temperature  
Mean Temperature 40 °F -  
Max Temperature 46 °F 41 °F 55 °F (2000)
Min Temperature 35 °F 33 °F 17 °F (2010)
Degree Days  
Heating Degree Days 24    
Moisture  
Dew Point 40 °F    
Average Humidity 96    
Maximum Humidity 100    
Minimum Humidity 81    
Precipitation  
Precipitation 0.00 in - - ()
Sea Level Pressure  
Sea Level Pressure 30.39 in    
Wind  
Wind Speed 3 mph ()    
Max Wind Speed 8 mph    
Max Gust Speed -    
Visibility 4.6 miles    
Events Fog , Rain    
Averages and records for this station are not official NWS values.
T = Trace of Precipitation, MM = Missing Value Source: Averaged Metar Reports

Daily Weather History Graph

Daily Weather History Graph

Search for Another Location

Airport or City:

Trip Planner

Search our weather history database for the weather conditions in past years. The results will help you decide how hot, cold, wet, or windy it might be!

Date:

Astronomy

Dec. 01, 2013 Rise Set
Actual Time 8:22 AM CET 4:28 PM CET
Civil Twilight 7:42 AM CET 5:08 PM CET
Nautical Twilight 6:59 AM CET 5:50 PM CET
Astronomical Twilight 6:19 AM CET 6:31 PM CET
Moon 6:10 AM CET (12/1) 3:35 PM CET (12/1)
Length of Visible Light 9h 25m
Length of Day
8h 05m
Waning Crescent, 3% of the Moon is Illuminated
Dec 1
Waning Crescent
Dec 3
New
Dec 9
First Quarter
Dec 17
Full
Dec 25
Last Quarter

Hourly Weather History & Observations

Time (CET) Temp. Windchill Dew Point Humidity Pressure Visibility Wind Dir Wind Speed Gust Speed Precip Events Conditions
12:25 AM 37.4 °F - 37.4 °F 100% 30.33 in 0.9 mi South 2.3 mph - N/A   Overcast
12:55 AM 37.4 °F - 37.4 °F 100% 30.33 in 1.2 mi West 2.3 mph - N/A   Overcast
1:25 AM 35.6 °F - 35.6 °F 100% 30.33 in 0.3 mi West 1.2 mph - N/A Fog Fog
1:55 AM 37.4 °F - 37.4 °F 100% 30.33 in 0.7 mi West 1.2 mph - N/A   Overcast
2:25 AM 37.4 °F - 37.4 °F 100% 30.36 in 1.3 mi Calm Calm - N/A   Overcast
2:55 AM 39.2 °F - 39.2 °F 100% 30.36 in - SW 2.3 mph - N/A   Overcast
3:25 AM 39.2 °F - 39.2 °F 100% 30.36 in - South 1.2 mph - N/A   Overcast
3:55 AM 37.4 °F - 37.4 °F 100% 30.36 in - Calm Calm - N/A   Overcast
4:25 AM 39.2 °F - 39.2 °F 100% 30.36 in 4.3 mi SSE 2.3 mph - N/A   Overcast
4:55 AM 39.2 °F - 39.2 °F 100% 30.36 in 5.6 mi WNW 2.3 mph - N/A   Overcast
5:25 AM 39.2 °F - 39.2 °F 100% 30.36 in 4.3 mi SE 2.3 mph - N/A   Overcast
5:55 AM 39.2 °F - 39.2 °F 100% 30.36 in 6.2 mi SW 2.3 mph - N/A   Overcast
6:25 AM 39.2 °F 37.0 °F 39.2 °F 100% 30.36 in 5.6 mi SSW 3.5 mph - N/A   Overcast
6:55 AM 37.4 °F 34.9 °F 37.4 °F 100% 30.36 in 4.3 mi SW 3.5 mph - N/A   Overcast
7:25 AM 37.4 °F - 37.4 °F 100% 30.36 in 3.7 mi SE 2.3 mph - N/A   Overcast
7:55 AM 35.6 °F - 35.6 °F 100% 30.36 in 1.1 mi SSW 1.2 mph - N/A   Partly Cloudy
8:25 AM 35.6 °F - 35.6 °F 100% 30.36 in 1.4 mi SW 2.3 mph - N/A   Mist
8:55 AM 35.6 °F 32.8 °F 35.6 °F 100% 30.36 in 1.7 mi SW 3.5 mph - N/A   Mist
9:25 AM 37.4 °F 33.8 °F 35.6 °F 93% 30.36 in 3.7 mi WSW 4.6 mph - N/A   Partly Cloudy
9:55 AM 37.4 °F 33.8 °F 37.4 °F 100% 30.39 in 5.6 mi West 4.6 mph - N/A   Mist
10:25 AM 41.0 °F 39.0 °F 41.0 °F 100% 30.39 in 6.2 mi West 3.5 mph - N/A   Unknown
10:55 AM 42.8 °F 40.1 °F 42.8 °F 100% 30.39 in 6.2 mi WSW 4.6 mph - N/A   Unknown
11:25 AM 44.6 °F 41.4 °F 42.8 °F 93% 30.39 in 6.2 mi West 5.8 mph - N/A   Scattered Clouds
11:55 AM 46.4 °F 42.4 °F 41.0 °F 81% 30.39 in 6.2 mi WNW 8.1 mph - N/A   Unknown
12:25 PM 46.4 °F 42.9 °F 41.0 °F 81% 30.39 in 6.2 mi WNW 6.9 mph - N/A   Partly Cloudy
12:55 PM 46.4 °F 42.9 °F 41.0 °F 81% 30.39 in 6.2 mi WNW 6.9 mph - N/A   Overcast
1:25 PM 46.4 °F 44.3 °F 42.8 °F 87% 30.39 in 6.2 mi West 4.6 mph - N/A   Overcast
1:55 PM 46.4 °F 44.3 °F 41.0 °F 81% 30.39 in 6.2 mi West 4.6 mph - N/A   Overcast
2:25 PM 46.4 °F 44.3 °F 41.0 °F 81% 30.39 in 6.2 mi West 4.6 mph - N/A   Overcast
2:55 PM 46.4 °F 43.5 °F 42.8 °F 87% 30.39 in 6.2 mi West 5.8 mph - N/A   Mostly Cloudy
3:25 PM 46.4 °F 44.3 °F 42.8 °F 87% 30.39 in 6.2 mi West 4.6 mph - N/A   Mostly Cloudy
3:55 PM 46.4 °F 44.3 °F 42.8 °F 87% 30.39 in 6.2 mi WNW 4.6 mph - N/A   Overcast
4:25 PM 46.4 °F 42.9 °F 42.8 °F 87% 30.42 in 6.2 mi WNW 6.9 mph - N/A   Overcast
4:55 PM 44.6 °F 43.1 °F 44.6 °F 100% 30.42 in 6.2 mi WNW 3.5 mph - N/A   Overcast
5:25 PM 44.6 °F 42.2 °F 42.8 °F 93% 30.42 in 6.2 mi WNW 4.6 mph - N/A   Overcast
5:55 PM 44.6 °F 42.2 °F 42.8 °F 93% 30.42 in 6.2 mi West 4.6 mph - N/A   Overcast
6:25 PM 44.6 °F 42.2 °F 44.6 °F 100% 30.42 in 5.0 mi West 4.6 mph - N/A   Overcast
6:55 PM 44.6 °F 42.2 °F 44.6 °F 100% 30.42 in 6.2 mi WNW 4.6 mph - N/A   Overcast
7:25 PM 44.6 °F 43.1 °F 44.6 °F 100% 30.45 in 5.6 mi WNW 3.5 mph - N/A   Overcast
7:55 PM 44.6 °F 43.1 °F 44.6 °F 100% 30.45 in 5.6 mi WNW 3.5 mph - N/A   Overcast
8:25 PM 44.6 °F 40.2 °F 44.6 °F 100% 30.45 in 6.2 mi North 8.1 mph - N/A Rain Light Rain
8:55 PM 44.6 °F - 42.8 °F 93% 30.45 in 6.2 mi NNW 2.3 mph - N/A   Overcast
9:25 PM 42.8 °F - 42.8 °F 100% 30.45 in 5.0 mi NW 2.3 mph - N/A   Mostly Cloudy
9:55 PM 37.4 °F - 37.4 °F 100% 30.45 in - NW 2.3 mph - N/A Fog Fog
10:25 PM 39.2 °F - 39.2 °F 100% 30.48 in 1.1 mi West 1.2 mph - N/A   Overcast
10:55 PM 41.0 °F - 41.0 °F 100% 30.48 in 3.1 mi WNW 2.3 mph - N/A   Overcast
11:25 PM 42.8 °F 41.1 °F 42.8 °F 100% 30.48 in 3.7 mi NNW 3.5 mph - N/A   Overcast
11:55 PM 42.8 °F 41.1 °F 41.0 °F 93% 30.48 in 5.0 mi NNW 3.5 mph - N/A   Overcast